User: anonymous
Location: Albany
(35.0000°S, 118.0000°E)
Time: 15:36:18
(UTC-04:00)
Language:

CZ-4B R/B - Orbit

View from above orbital plane
View from above orbital plane
View from above satellite
View from above satellite

Ground track
Ground track

The orbit data is extracted from the following two-line orbital elements,

1 33410U 08053C   14211.43961731  .00001179  00000-0  98409-4 0  8788
2 33410 097.5887 187.3771 0131798 121.0889 240.3343 14.93912964313306
Epoch (UTC): 30 July 2014 10:33:02
Eccentricity: 0.0131798
inclination: 97.5887°
perigee height: 494 km
apogee height: 677 km
right ascension of ascending node: 187.3771°
argument of perigee: 121.0889°
revolutions per day: 14.93912964
mean anomaly at epoch: 240.3343°
orbit number at epoch: 31330

The dashed part of the orbit path shows where the satellite is in the earth's shadow,  

DLR